RH
19 20 18 16 17 17 18 19 19 20 20 19 19 18 17 17 18 18 17 17 15 15 15 15 16 17 17 19 20 17 18 21 22 24 29 32 35 39 42 43 43 45 49 52 51 48 49 49 47 46 46 46 48 48 47 48 50 47 47 51 53 56 58 60 62 62 63 65 65 66 67 67 67 65 66 67 68 68 71 73 74 76 79 80 79 77
20 22 20 16 17 18 20 21 20 22 22 20 19 18 17 18 19 19 19 18 16 16 16 15 15 17 16 18 21 19 17 18 20 22 25 25 27 32 37 39 42 46 49 52 54 52 50 49 48 47 46 46 47 48 48 48 50 50 50 51 55 60 60 61 63 63 64 65 65 65 64 63 64 64 65 68 68 69 72 73 75 78 79 79 76 72
23 22 20 18 20 20 21 20 21 23 23 22 21 19 19 20 20 21 21 18 18 17 17 16 17 18 17 18 21 20 18 18 18 20 23 24 24 28 31 32 37 45 49 52 56 56 52 49 50 49 46 45 46 48 49 48 49 51 54 55 56 61 64 66 66 66 66 65 64 63 62 61 62 62 65 70 70 70 72 73 74 74 74 74 70 66
25 22 20 21 21 20 20 20 22 25 24 24 23 20 22 23 21 24 24 21 19 18 18 19 19 18 17 18 19 19 18 19 19 20 23 23 23 26 29 30 36 42 46 52 56 58 54 51 51 50 47 45 45 49 50 49 50 50 53 55 56 60 65 68 68 68 70 69 67 66 64 62 61 62 66 69 68 69 73 74 69 67 68 69 68 67
24 23 22 22 20 19 23 24 24 25 23 23 23 23 25 25 23 23 24 22 20 19 19 19 19 18 17 17 18 20 22 21 20 21 23 24 24 26 27 31 37 41 45 50 53 56 54 52 52 51 49 46 46 49 50 51 51 51 53 53 54 58 63 68 69 70 72 73 72 68 66 64 63 64 66 66 65 66 69 67 62 63 65 68 71 70
26 25 23 22 20 20 24 25 24 24 21 22 25 26 27 25 23 21 20 21 20 20 21 21 21 20 18 19 21 24 26 23 22 22 21 22 25 26 28 32 38 43 47 50 51 53 53 52 52 51 48 46 46 48 52 54 54 53 54 53 54 56 60 67 70 71 74 75 74 70 67 67 66 67 67 67 67 65 65 61 60 65 68 68 69 66
28 26 24 24 24 23 24 24 24 23 21 23 26 28 27 23 21 20 21 22 21 22 26 24 22 21 21 22 23 24 26 26 26 24 23 22 22 25 28 33 39 42 47 51 51 51 51 50 51 51 48 46 47 49 54 59 58 58 57 55 56 57 61 67 71 74 74 73 72 67 66 69 68 70 69 68 69 67 64 62 62 67 67 66 64 57
27 26 26 27 27 26 25 23 23 23 22 25 27 26 25 22 21 20 21 22 22 25 29 24 22 22 21 21 25 27 27 30 30 27 26 25 22 24 27 32 38 40 45 52 53 48 47 48 50 50 48 47 47 48 55 61 61 62 61 58 59 59 61 66 71 75 74 71 71 65 65 70 71 72 71 69 70 70 68 65 63 64 64 63 61 55
28 27 27 28 29 27 25 24 25 23 23 25 25 23 24 24 23 21 21 23 25 26 28 26 25 23 21 21 27 29 29 36 38 31 28 27 26 27 27 31 37 40 45 51 51 45 43 46 47 48 48 47 50 55 62 67 66 66 64 61 60 60 61 66 71 73 71 70 70 67 67 69 71 73 73 71 71 72 71 66 61 62 63 61 59 58
31 28 28 29 29 27 26 25 24 24 24 25 24 24 25 26 24 23 23 26 30 28 26 28 29 24 20 21 30 37 39 45 46 39 34 30 27 29 30 33 38 42 48 52 49 43 41 44 45 47 48 48 56 66 71 72 71 69 66 63 63 62 64 68 70 70 71 73 74 73 71 69 71 76 74 72 72 73 71 63 58 59 60 60 60 59
31 28 29 30 30 28 27 27 25 25 25 25 25 25 27 27 25 26 27 29 34 32 25 28 32 27 20 24 38 48 49 47 47 46 42 34 32 38 41 41 42 43 48 49 46 43 42 43 44 47 49 48 55 63 66 69 71 70 67 66 66 67 68 71 71 69 69 71 74 75 72 70 73 78 76 73 73 73 70 63 59 60 61 62 58 55
29 29 29 29 29 29 29 29 27 25 24 25 26 29 31 31 30 31 32 33 33 31 28 29 32 27 21 30 45 51 49 46 47 49 46 42 42 45 44 43 42 43 47 47 45 45 44 44 46 48 51 52 52 54 57 64 72 72 67 64 64 66 67 69 71 71 69 69 71 72 71 72 75 76 75 72 74 75 72 65 60 62 63 59 53 52
30 29 30 30 30 29 28 29 28 25 25 25 26 31 34 33 36 35 34 35 30 29 31 30 30 27 25 36 46 46 47 47 47 45 45 46 44 40 38 40 41 42 45 45 44 44 42 44 47 48 53 55 55 54 54 62 73 75 67 61 60 60 61 64 68 72 73 72 73 74 74 76 77 76 74 71 76 79 72 62 57 56 56 53 52 53
33 32 31 31 31 29 28 29 30 27 25 25 27 32 33 32 38 38 33 32 28 30 35 31 27 25 28 40 42 40 45 47 45 43 44 47 43 37 37 38 39 40 41 41 41 40 38 40 44 48 53 57 59 60 58 63 73 72 64 62 62 60 60 61 65 70 73 72 73 76 79 79 79 81 78 74 77 77 66 55 51 51 53 54 56 57
36 35 33 32 30 29 28 27 30 30 28 27 27 30 32 31 35 37 32 32 32 36 39 34 27 24 32 46 45 40 46 48 48 46 44 46 43 40 40 39 39 40 38 38 38 39 40 41 45 51 54 58 62 65 63 65 69 66 62 62 63 60 59 60 61 66 70 70 71 76 81 80 80 84 83 78 77 73 61 51 50 54 59 61 61 61
35 35 34 33 30 28 29 28 29 32 33 31 29 31 33 31 32 35 36 39 39 39 41 36 29 29 40 50 48 46 50 50 51 50 49 50 47 45 44 42 41 41 40 40 40 43 46 47 51 56 59 62 64 66 66 65 66 66 64 63 61 58 57 60 64 66 68 68 69 74 78 79 80 82 79 76 75 69 58 52 55 61 65 65 63 61
34 34 32 31 30 28 29 29 29 31 33 33 32 32 32 31 33 36 38 39 35 34 40 36 30 34 43 47 49 53 55 53 52 54 57 58 54 52 51 50 48 47 47 48 47 50 53 54 56 60 64 66 64 63 66 66 65 69 69 65 62 57 53 58 64 65 66 66 69 73 74 75 77 75 70 70 73 68 60 59 63 65 65 64 61 59
33 35 34 29 30 30 28 29 30 31 32 35 36 32 31 32 33 35 38 38 33 33 38 35 32 38 43 45 52 59 59 54 52 56 62 65 61 59 60 58 56 55 56 56 56 56 58 61 64 66 69 71 67 64 67 68 68 73 73 68 65 60 54 56 61 63 65 66 68 70 71 73 75 71 65 64 68 68 65 65 65 64 63 62 59 59
34 35 38 32 30 30 28 30 33 31 29 34 37 35 36 37 36 35 37 39 37 34 36 36 34 37 42 48 58 64 63 59 56 60 64 65 65 66 68 66 63 63 64 62 61 62 64 68 72 75 75 72 71 70 71 73 74 76 77 72 69 64 59 59 63 65 66 63 63 66 68 72 74 69 64 60 59 62 66 66 65 65 64 61 59 60
37 38 42 37 32 31 31 31 33 34 31 31 35 37 39 41 41 41 37 36 38 38 39 38 36 41 50 56 61 66 66 62 60 63 65 65 67 69 71 72 70 70 69 67 65 65 67 70 72 77 77 73 73 72 73 77 77 78 81 77 72 66 60 60 63 65 64 60 60 65 66 68 68 65 62 59 55 56 62 64 65 65 62 58 58 61
40 42 45 42 36 32 33 33 34 39 38 33 34 36 39 40 42 44 41 38 38 40 44 41 39 53 60 55 58 63 63 61 60 63 65 66 67 67 68 71 72 72 73 72 68 68 69 68 69 76 80 77 74 73 76 81 80 80 82 77 71 66 60 59 62 65 66 64 63 65 64 64 66 64 61 59 55 53 56 61 65 66 62 59 59 63
43 43 44 45 41 35 36 38 37 40 43 41 37 37 40 42 41 41 41 41 36 36 44 40 43 64 66 52 56 61 59 60 60 62 67 69 71 73 72 72 72 72 72 72 70 69 69 69 72 78 83 82 77 77 84 89 85 83 83 76 70 66 62 61 63 67 69 68 66 64 63 63 66 67 65 60 55 53 55 60 64 66 62 59 61 66
46 44 43 46 44 42 43 42 39 40 42 44 44 43 43 42 41 40 42 46 40 35 41 38 41 61 66 56 57 59 58 62 64 67 71 73 78 82 78 75 73 70 70 71 72 70 68 71 75 77 80 81 79 82 90 92 86 82 81 78 72 69 66 64 65 68 70 69 67 65 66 66 65 68 67 63 57 54 55 57 60 61 59 59 63 67
50 47 46 47 46 46 47 43 41 41 40 43 45 44 44 44 43 42 44 48 45 40 41 38 40 59 66 60 60 60 61 64 66 71 73 75 81 82 77 75 73 72 72 72 72 69 70 75 77 77 78 78 79 83 89 90 86 83 82 80 74 71 70 67 67 69 70 69 69 68 69 70 69 69 69 67 62 57 55 55 56 57 57 59 63 65
54 50 49 50 50 52 53 48 45 44 43 46 47 44 42 43 42 41 42 44 44 44 43 39 48 67 71 64 63 64 65 68 70 73 75 77 80 78 74 73 73 74 76 75 73 71 73 78 79 79 79 78 80 85 87 88 88 86 84 81 76 72 71 72 73 74 73 72 71 73 74 75 74 73 72 71 68 63 59 57 58 58 57 60 62 62
58 56 53 51 52 53 53 50 47 46 45 45 45 44 42 42 42 43 42 42 42 44 42 39 52 71 72 65 66 66 68 72 73 74 77 79 79 77 76 76 76 76 76 75 74 73 75 77 77 79 79 79 84 89 88 89 91 90 86 83 78 73 72 77 80 80 78 75 73 77 80 81 80 78 74 72 71 68 64 62 63 63 59 59 61 59
63 63 58 56 56 54 53 51 48 48 48 47 45 45 46 45 45 45 45 47 48 45 43 42 50 62 68 69 69 67 67 72 75 77 78 78 78 78 78 79 80 78 76 75 75 76 77 77 79 82 82 81 85 91 92 92 92 91 89 86 83 79 79 83 85 86 85 82 81 83 83 83 83 80 77 75 73 72 68 66 68 67 63 62 62 59
66 67 64 62 60 57 56 54 50 49 52 52 50 50 51 50 49 47 48 54 55 49 49 52 51 56 65 69 66 64 66 71 76 80 80 78 79 78 78 79 78 76 74 72 74 76 78 78 80 84 86 86 89 92 92 90 89 87 86 85 85 83 83 83 85 89 91 88 88 86 85 86 85 82 81 81 78 76 73 70 69 69 67 67 66 64
67 68 68 67 64 60 57 54 52 53 54 54 53 53 53 53 53 52 51 55 56 54 57 62 60 61 67 67 63 62 67 73 77 80 80 79 79 77 75 75 74 73 72 71 73 75 75 76 79 81 84 88 91 91 89 88 86 83 80 80 79 79 80 80 81 88 92 91 91 90 88 89 87 85 85 85 83 81 79 75 71 67 66 69 71 70
67 69 69 70 70 68 64 59 57 55 56 57 57 55 54 54 54 55 54 54 54 56 60 62 64 66 66 65 64 64 68 73 76 76 75 78 81 80 76 76 76 74 73 73 73 72 73 75 77 77 81 86 88 86 85 85 84 80 77 76 75 74 76 77 81 88 91 92 92 91 89 90 89 88 89 89 87 86 84 82 75 66 64 69 73 73
73 72 69 71 75 77 74 70 67 64 61 62 62 59 58 58 57 57 56 56 58 61 61 59 63 68 66 65 69 70 71 74 75 75 74 76 83 83 79 80 80 75 72 73 73 72 73 75 76 77 80 85 86 85 84 84 83 81 79 77 76 76 77 78 83 89 91 90 88 86 86 88 89 89 90 90 90 89 88 87 82 73 69 71 73 72
80 76 73 73 76 83 84 78 78 76 69 67 69 68 65 64 63 62 62 62 65 68 66 62 64 68 66 66 71 73 74 75 76 78 77 77 80 80 79 81 80 76 74 73 74 75 76 78 80 81 81 82 84 86 86 85 84 82 80 79 79 80 82 83 84 86 88 89 90 89 87 86 87 89 90 90 90 91 92 90 86 80 77 75 72 69
82 80 81 77 74 83 87 82 84 85 77 74 78 77 73 71 68 67 67 67 68 69 69 68 67 65 65 68 71 72 74 78 80 80 79 78 78 77 76 77 77 77 76 75 75 76 79 83 85 83 82 84 86 86 86 85 84 82 80 80 80 81 82 83 83 85 90 92 93 92 90 86 85 86 87 87 89 91 92 92 88 81 76 74 72 70
82 81 84 82 79 85 88 83 85 87 84 85 85 80 78 78 75 74 73 71 69 69 68 67 66 66 68 70 71 71 74 80 82 81 80 81 81 79 78 78 76 74 75 76 77 78 80 86 88 84 84 87 87 87 87 85 83 82 80 80 81 81 80 81 82 86 90 90 88 89 89 87 86 85 84 84 86 87 87 89 87 81 78 76 75 75
82 82 83 81 81 86 90 88 88 88 89 92 90 83 82 81 79 79 79 76 73 73 70 68 68 70 72 73 73 73 75 78 80 81 82 82 83 83 84 83 77 72 74 78 79 79 81 86 88 86 86 87 86 86 86 83 81 80 80 80 80 80 80 80 80 82 84 83 82 82 85 86 85 84 83 82 81 80 80 81 81 80 81 82 80 79
79 79 78 78 77 77 79 84 89 91 92 92 91 89 87 85 84 84 84 84 82 79 79 78 77 79 81 81 80 78 79 80 81 82 83 82 83 84 85 84 79 73 75 77 77 79 85 89 89 87 87 88 88 86 84 82 80 78 78 77 77 77 77 77 76 77 77 77 77 77 79 82 83 82 81 80 78 77 78 80 81 82 84 85 84 85
77 76 72 73 73 69 68 78 90 94 95 94 94 93 93 93 93 91 90 91 89 85 85 86 86 87 88 87 85 83 81 80 80 81 82 82 83 84 84 84 82 80 79 77 75 77 83 87 89 88 87 88 89 88 84 82 81 80 78 77 75 74 74 73 72 71 71 72 73 74 75 77 78 78 78 78 78 78 80 81 82 83 84 84 86 88
73 71 67 67 69 66 65 73 82 86 90 95 97 96 95 96 97 94 93 95 93 90 89 89 89 89 90 90 89 86 81 80 82 84 84 84 85 86 85 85 86 86 84 81 77 76 79 83 86 86 84 84 86 88 87 84 84 81 79 78 77 74 74 73 72 71 71 71 72 72 72 72 72 73 74 76 78 79 80 82 83 86 86 84 83 85
65 63 61 63 66 65 62 66 74 81 87 91 94 95 96 97 97 96 94 95 95 93 91 90 90 91 93 94 95 91 86 85 90 93 91 90 90 88 86 85 85 85 85 84 81 78 80 86 88 87 84 82 83 86 87 87 87 83 80 81 81 78 77 76 75 75 74 74 75 75 75 74 73 73 73 74 75 76 77 79 82 85 84 81 80 80
65 63 62 63 66 67 64 66 74 84 89 88 89 92 95 98 97 93 92 94 95 95 93 93 93 93 93 94 96 96 94 94 96 97 95 94 93 89 86 85 84 84 85 86 87 87 88 90 92 92 90 88 87 86 85 86 87 83 81 82 83 81 78 75 73 73 74 75 76 76 76 76 75 74 74 73 72 71 71 72 74 75 75 75 75 75
71 74 71 70 72 72 71 70 73 79 85 86 88 90 94 98 95 90 92 96 97 96 96 96 96 96 95 94 94 95 96 96 96 95 92 91 91 88 84 83 81 81 81 84 87 90 92 92 91 91 90 90 89 89 88 87 85 83 81 81 81 80 78 73 70 69 70 71 72 72 72 73 72 72 71 70 69 68 66 67 67 68 68 69 70 71
77 79 78 79 81 78 76 76 76 79 83 85 87 88 91 96 95 92 95 98 97 97 98 98 97 97 97 97 96 95 96 95 93 92 90 88 88 86 83 81 80 79 79 80 81 83 85 88 88 88 89 88 87 87 88 87 86 84 83 82 80 79 77 75 73 71 71 71 70 70 69 69 69 69 68 68 67 67 67 67 67 67 68 69 71 72
82 79 78 82 84 80 79 83 87 89 87 84 84 86 88 94 98 97 98 98 97 97 97 97 97 97 98 99 97 96 97 96 94 93 92 91 90 87 84 82 81 81 81 80 78 77 77 79 82 84 85 86 86 85 85 85 85 86 87 87 86 83 81 79 77 75 74 74 74 72 70 69 69 69 69 69 69 69 69 69 69 69 70 71 72 73
84 80 77 79 79 78 83 89 91 91 89 85 84 86 87 92 98 99 99 98 97 96 95 95 95 95 95 96 96 95 96 95 94 94 94 93 93 91 88 86 85 85 85 83 83 83 81 79 79 80 80 81 81 81 81 81 81 82 84 85 85 84 83 81 78 76 75 74 74 72 69 68 69 69 70 70 70 70 71 71 70 71 71 71 71 72
85 82 78 78 77 77 82 87 86 85 84 83 83 85 87 91 96 99 100 99 97 95 94 94 92 90 89 90 91 91 93 94 94 94 93 92 93 91 90 89 87 85 84 84 85 86 85 82 78 77 76 74 73 73 73 74 75 76 77 78 78 77 77 76 76 75 75 73 72 71 69 68 69 70 71 71 71 72 73 73 73 73 73 73 72 72
84 80 77 78 79 77 79 82 82 80 81 80 81 81 83 87 90 93 97 99 99 97 94 92 89 87 85 86 87 87 88 89 90 90 89 89 89 89 89 88 87 86 85 84 84 84 83 80 77 74 73 71 69 68 68 68 68 67 68 69 69 69 68 67 67 67 66 66 65 65 64 63 64 66 68 69 70 70 70 70 70 69 67 67 67 67
80 77 75 76 78 78 80 82 80 79 79 78 79 79 81 83 85 87 91 96 98 97 94 91 88 85 84 85 85 85 84 84 85 85 85 85 85 86 86 86 86 84 82 81 81 81 81 80 79 76 74 72 69 68 67 65 63 61 61 60 60 60 59 59 59 59 58 57 57 56 55 54 54 55 57 57 58 59 59 58 57 56 55 54 53 53
75 75 74 72 72 75 79 79 78 78 79 77 78 79 79 80 83 85 88 94 96 95 94 92 87 85 85 85 83 83 82 81 82 83 84 84 84 83 82 82 81 80 80 79 78 78 78 77 77 75 72 70 67 65 63 61 60 59 59 58 56 56 56 55 55 54 54 53 52 51 50 48 48 47 47 47 46 46 45 45 44 43 43 42 42 41
68 70 70 69 69 73 77 76 75 76 78 78 79 80 78 78 80 82 85 90 93 94 94 94 91 89 88 87 83 81 80 78 79 81 81 81 82 82 81 81 81 80 78 76 74 72 71 70 70 69 68 67 66 66 66 63 59 58 58 58 56 55 54 53 52 50 49 48 47 46 44 43 42 41 40 39 38 37 36 35 34 34 33 32 31 31
67 66 67 67 69 72 75 74 72 73 75 76 79 81 81 80 80 82 84 86 89 91 92 93 94 94 94 92 88 84 81 80 78 78 77 78 81 82 82 82 82 81 78 76 74 72 70 70 71 70 68 66 65 65 65 62 58 56 56 55 54 53 50 49 49 47 45 43 42 40 39 38 37 36 34 33 32 31 29 26 25 24 24 23 22 21
65 64 62 61 61 65 68 68 67 68 70 71 75 80 83 83 81 83 85 86 87 90 91 91 93 95 96 96 95 91 89 87 83 81 79 78 78 79 79 80 81 81 78 75 73 72 72 74 75 74 71 70 67 64 63 60 56 54 53 51 50 50 47 46 46 45 43 40 38 37 36 34 32 30 29 27 26 27 28 26 24 21 19 19 19 18